CW2274 Weather Reports


Display with metric or nautical units.
time (UTC)temp
F
wind
direction
speed
MPH
gust
MPH
rain 1hr
in
rain 24hr
in
rain mn
in
humidity
%
barometer
mb
20260831214022 74 134 3.0 9.0 0.01 1.25 1.25 83 1017.5
20260831213516 74 204 3.0 6.0 0.01 1.25 1.25 85 1017.8
20260831213031 73 159 3.0 6.0 0.02 1.25 1.25 87 1018.2
20260831212525 72 191 3.0 6.0 0.03 1.25 1.25 90 1018.3
20260831212023 71 204 2.0 6.0 0.03 1.25 1.25 91 1018.3
20260831211517 70 200 2.0 5.0 0.05 1.25 1.25 92 1018.5
20260831211032 70 134 2.0 8.0 0.06 1.25 1.25 92 1018.6
20260831210525 69 206 2.0 9.0 0.07 1.25 1.25 92 1018.8
20260831210031 69 137 3.0 10.0 0.07 1.25 1.25 92 1019.1
20260831205531 69 142 4.0 10.0 0.08 1.25 1.25 92 1019.2
20260831205025 68 216 4.0 8.0 0.08 1.25 1.25 92 1019.5
20260831204523 68 173 2.0 10.0 0.09 1.25 1.25 92 1019.4
20260831204016 68 124 6.0 10.0 0.09 1.24 1.24 92 1019.3
20260831203530 68 92 5.0 8.0 0.10 1.24 1.24 92 1019.5
20260831203024 68 117 4.0 8.0 0.10 1.23 1.23 92 1019.9
20260831202518 68 130 4.0 6.0 0.09 1.22 1.22 92 1020.2
20260831202033 68 135 2.0 8.0 0.10 1.22 1.22 92 1020.4
20260831201527 68 135 4.0 8.0 0.08 1.20 1.20 93 1020.4
20260831201021 68 117 2.0 5.0 0.08 1.19 1.19 93 1020.7
20260831200519 68 129 2.0 8.0 0.07 1.18 1.18 93 1020.8
20260831200047 68 125 4.0 8.0 0.08 1.18 1.18 92 1020.7
20260831195527 68 135 4.0 8.0 0.07 1.17 1.17 93 1020.8
20260831195020 68 124 3.0 6.0 0.09 1.17 1.17 93 1020.9
20260831194514 68 177 3.0 7.0 0.09 1.16 1.16 93 1021.0
20260831194029 67 253 2.0 7.0 0.08 1.15 1.15 93 1021.2
20260831193524 68 254 3.0 7.0 0.08 1.14 1.14 93 1021.3
20260831193023 68 274 3.0 7.0 0.08 1.13 1.13 93 1021.3
20260831192517 69 312 1.0 5.0 0.09 1.13 1.13 93 1021.3
20260831192032 68 312 2.0 4.0 0.09 1.12 1.12 93 1021.3
20260831191526 68 313 2.0 3.0 0.09 1.12 1.12 93 1021.4
20260831191020 68 313 1.0 3.0 0.09 1.11 1.11 92 1021.3
20260831190515 69 314 1.0 5.0 0.15 1.11 1.11 93 1021.2
20260831190043 68 314 2.0 5.0 0.24 1.10 1.10 92 1021.4
20260831185522 68 314 1.0 3.0 0.29 1.10 1.10 92 1021.8
20260831185020 69 314 1.0 3.0 0.32 1.08 1.08 92 1021.8
20260831184514 68 314 0.0 2.0 0.32 1.07 1.07 92 1021.8
20260831184028 68 314 0.0 2.0 0.32 1.07 1.07 92 1021.9
20260831183522 69 314 0.0 1.0 0.31 1.06 1.06 92 1021.7
20260831183015 68 314 0.0 3.0 0.31 1.05 1.05 92 1021.7
20260831182529 68 314 1.0 5.0 0.30 1.04 1.04 92 1021.4
20260831182023 68 315 1.0 7.0 0.30 1.03 1.03 92 1021.4
20260831181521 68 295 3.0 8.0 0.36 1.03 1.03 92 1021.5
20260831181015 68 287 3.0 11.0 0.48 1.01 1.01 92 1021.6
20260831180529 68 289 4.0 11.0 0.47 0.96 0.96 92 1021.8
20260831180036 68 280 6.0 10.0 0.37 0.86 0.86 91 1021.8
20260831175515 69 299 2.0 5.0 0.31 0.80 0.80 91 1021.8
20260831175029 69 297 2.0 8.0 0.27 0.76 0.76 91 1021.8
20260831174523 69 296 2.0 8.0 0.26 0.75 0.75 91 1021.6
20260831174017 70 325 1.0 5.0 0.26 0.75 0.75 91 1021.6
20260831173515 70 325 2.0 5.0 0.26 0.75 0.75 91 1021.4
20260831173030 70 314 2.0 5.0 0.25 0.74 0.74 90 1021.2
20260831172524 70 304 1.0 3.0 0.25 0.74 0.74 90 1021.2
20260831172018 70 302 2.0 6.0 0.24 0.73 0.73 89 1021.2
20260831171532 71 290 2.0 10.0 0.18 0.67 0.67 87 1020.9
20260831171026 72 288 4.0 10.0 0.04 0.53 0.53 83 1020.7
20260831170521 74 295 3.0 10.0 0.00 0.49 0.49 80 1020.7
20260831170030 74 285 3.0 7.0 0.00 0.49 0.49 82 1020.7
20260831165529 74 315 1.0 9.0 0.00 0.49 0.49 81 1020.7
20260831165023 76 325 4.0 9.0 0.00 0.49 0.49 76 1020.3
20260831164517 76 297 2.0 7.0 0.00 0.49 0.49 74 1020.2
20260831164031 77 338 1.0 4.0 0.00 0.49 0.49 75 1019.9
20260831163525 77 354 1.0 4.0 0.00 0.49 0.49 75 1019.8
20260831163019 76 354 1.0 3.0 0.00 0.49 0.49 75 1019.9
20260831162533 76 354 1.0 5.0 0.00 0.49 0.49 76 1019.7
20260831162031 76 354 2.0 7.0 0.00 0.49 0.49 75 1019.7
20260831161525 77 354 1.0 7.0 0.00 0.49 0.49 76 1019.4
20260831161019 77 334 3.0 5.0 0.00 0.49 0.49 75 1019.3
20260831160532 77 323 2.0 6.0 0.00 0.49 0.49 76 1019.2
20260831160039 78 356 2.0 6.0 0.00 0.49 0.49 74 1019.0
20260831155518 78 4 3.0 6.0 0.00 0.49 0.49 74 1019.0
20260831155032 77 4 2.0 5.0 0.00 0.49 0.49 74 1018.9
20260831154526 78 4 3.0 5.0 0.00 0.49 0.49 73 1018.8
20260831154023 78 341 3.0 5.0 0.00 0.49 0.49 73 1018.7
20260831153517 77 329 2.0 6.0 0.00 0.49 0.49 75 1018.6
20260831153031 77 314 3.0 6.0 0.00 0.49 0.49 75 1018.5
20260831152524 77 310 1.0 4.0 0.00 0.49 0.49 78 1018.5
20260831152017 76 310 1.0 5.0 0.00 0.49 0.49 83 1018.5
20260831151531 75 310 2.0 3.0 0.00 0.49 0.49 82 1018.4
20260831151025 74 310 0.0 3.0 0.00 0.49 0.49 82 1018.5
20260831150523 74 310 0.0 5.0 0.00 0.49 0.49 85 1018.4
20260831150028 73 310 1.0 5.0 0.00 0.49 0.49 87 1018.2
20260831145529 73 312 3.0 6.0 0.00 0.49 0.49 87 1018.2
20260831145023 73 337 2.0 4.0 0.00 0.49 0.49 86 1018.0
20260831144517 74 19 1.0 3.0 0.00 0.49 0.49 86 1018.0
20260831144031 74 21 1.0 3.0 0.00 0.49 0.49 85 1018.0
20260831143525 74 21 0.0 3.0 0.00 0.49 0.49 84 1017.9
20260831143018 73 21 0.0 5.0 0.00 0.49 0.49 85 1017.9
20260831142516 72 21 2.0 6.0 0.01 0.49 0.49 84 1017.8
20260831142030 72 23 3.0 6.0 0.01 0.49 0.49 84 1017.9
20260831141524 71 298 0.0 4.0 0.01 0.49 0.49 86 1017.6
20260831141018 71 297 1.0 9.0 0.01 0.49 0.49 88 1017.7
20260831140532 71 296 3.0 9.0 0.01 0.49 0.49 88 1017.6
20260831140038 70 327 2.0 10.0 0.01 0.49 0.49 89 1017.6
20260831135517 70 280 3.0 10.0 0.01 0.49 0.49 90 1017.7
20260831135015 70 285 3.0 7.0 0.01 0.49 0.49 90 1017.7
20260831134530 70 284 2.0 10.0 0.01 0.49 0.49 90 1017.7
20260831134023 70 286 7.0 10.0 0.01 0.49 0.49 91 1017.8
20260831133517 70 274 4.0 10.0 0.01 0.49 0.49 90 1017.8
20260831133031 70 277 5.0 9.0 0.01 0.49 0.49 90 1017.8
20260831132525 70 277 5.0 8.0 0.00 0.48 0.48 90 1017.9
20260831132020 69 313 1.0 6.0 0.01 0.48 0.48 90 1017.8
20260831131513 69 342 2.0 11.0 0.01 0.48 0.48 91 1017.9
20260831131031 69 355 5.0 11.0 0.02 0.48 0.48 91 1018.0
20260831130525 69 333 2.0 5.0 0.11 0.48 0.48 91 1018.2
20260831130031 69 342 2.0 8.0 0.30 0.48 0.48 91 1018.3
20260831125531 69 291 3.0 7.0 0.43 0.48 0.48 91 1018.8
20260831125025 69 310 3.0 5.0 0.46 0.48 0.48 91 1018.7
20260831124519 69 354 2.0 8.0 0.46 0.48 0.48 91 1019.2
20260831124014 69 13 4.0 8.0 0.46 0.48 0.48 91 1018.4
20260831123528 69 25 4.0 9.0 0.46 0.48 0.48 91 1018.7
20260831123026 69 305 1.0 7.0 0.46 0.48 0.48 91 1018.6
20260831122520 69 335 3.0 11.0 0.46 0.48 0.48 90 1018.5
20260831122014 69 358 4.0 10.0 0.46 0.47 0.47 90 1018.5
20260831121528 69 355 4.0 10.0 0.47 0.47 0.47 90 1018.1
20260831121022 70 8 3.0 8.0 0.46 0.46 0.46 89 1018.2
20260831120516 70 311 1.0 5.0 0.34 0.34 0.35 88 1018.0
20260831120040 71 305 2.0 5.0 0.18 0.18 0.18 85 1018.2
20260831115524 72 308 2.0 7.0 0.05 0.05 0.05 82 1018.1
20260831115018 73 308 2.0 7.0 0.02 0.02 0.02 80 1017.6
20260831114532 73 293 3.0 16.0 0.02 0.02 0.02 78 1017.5
20260831114025 72 287 5.0 17.0 0.02 0.02 0.02 80 1017.5
20260831113520 72 261 8.0 17.0 0.02 0.02 0.02 82 1017.4
20260831113014 72 273 10.0 17.0 0.02 0.02 0.02 82 1017.0
20260831112528 72 264 10.0 17.0 0.02 0.02 0.02 83 1017.0
20260831112022 74 266 8.0 20.0 0.00 0.00 0.00 78 1016.9
20260831111015 75 248 13.0 25.0 0.00 0.00 0.00 69 1016.6
20260831110529 76 267 11.0 28.0 0.00 0.00 0.00 67 1016.7
20260831110034 78 240 12.0 28.0 0.00 0.00 0.00 63 1016.4
20260831105514 82 244 8.0 15.0 0.00 0.00 0.00 52 1016.4
20260831105028 82 329 4.0 6.0 0.00 0.00 0.00 52 1016.0
20260831104523 82 332 2.0 5.0 0.00 0.00 0.00 52 1015.5
20260831104022 82 359 1.0 4.0 0.00 0.00 0.00 52 1015.3
20260831103516 82 6 2.0 3.0 0.00 0.00 0.00 52 1015.1
20260831103029 81 6 1.0 3.0 0.00 0.00 0.00 52 1015.0
20260831102523 82 6 1.0 2.0 0.00 0.00 0.00 52 1015.0
20260831102017 82 6 1.0 3.0 0.00 0.00 0.00 52 1014.9
20260831101531 82 6 2.0 3.0 0.00 0.00 0.00 52 1014.9
20260831101025 82 6 0.0 2.0 0.00 0.00 0.00 52 1014.9
20260831100520 82 6 0.0 3.0 0.00 0.00 0.00 54 1014.9
20260831100030 81 6 1.0 3.0 0.00 0.00 0.00 55 1014.8
20260831095529 81 6 0.0 1.0 0.00 0.00 0.00 54 1014.9
20260831095023 81 6 0.0 1.0 0.00 0.00 0.00 54 1014.8
20260831094517 81 6 0.0 2.0 0.00 0.00 0.00 54 1014.8
20260831094031 81 6 0.0 2.0 0.00 0.00 0.00 56 1014.8
20260831093524 81 6 0.0 1.0 0.00 0.00 0.00 54 1014.7
20260831093019 82 6 0.0 1.0 0.00 0.00 0.00 54 1014.5
20260831092517 81 6 0.0 1.0 0.00 0.00 0.00 54 1014.6
20260831092032 82 6 0.0 1.0 0.00 0.00 0.00 54 1014.6
20260831091527 82 6 0.0 2.0 0.00 0.00 0.00 55 1014.6
20260831091022 82 6 1.0 3.0 0.00 0.00 0.00 54 1014.7
20260831090516 82 6 1.0 2.0 0.00 0.00 0.00 54 1014.9
20260831090045 82 6 1.0 2.0 0.00 0.00 0.00 54 1014.9
20260831085525 82 6 0.0 1.0 0.00 0.00 0.00 54 1014.9
20260831085019 82 6 0.0 2.0 0.00 0.00 0.00 55 1014.9
20260831084517 82 6 1.0 2.0 0.00 0.00 0.00 55 1015.0
20260831084032 82 6 1.0 2.0 0.00 0.00 0.00 55 1014.9
20260831083525 82 6 1.0 2.0 0.00 0.00 0.00 55 1015.1
20260831083019 82 6 1.0 2.0 0.00 0.00 0.00 55 1015.0
20260831082513 82 6 0.0 1.0 0.00 0.00 0.00 53 1014.9
20260831082027 82 6 0.0 1.0 0.00 0.00 0.00 55 1015.0
20260831081522 82 6 0.0 1.0 0.00 0.00 0.00 55 1015.0
20260831081019 82 6 0.0 2.0 0.00 0.00 0.00 53 1015.1
20260831080514 82 6 1.0 2.0 0.00 0.00 0.00 53 1015.0
20260831080042 83 6 0.0 1.0 0.00 0.00 0.00 52 1015.1
20260831075022 83 6 0.0 0.0 0.00 0.00 0.00 52 1015.1
20260831074517 83 6 0.0 0.0 0.00 0.00 0.00 52 1015.1
20260831074031 83 6 0.0 0.0 0.00 0.00 0.00 51 1015.2
20260831073526 83 6 0.0 0.0 0.00 0.00 0.00 50 1015.1
20260831073024 84 6 0.0 0.0 0.00 0.00 0.00 51 1015.1
20260831072520 84 6 0.0 1.0 0.00 0.00 0.00 50 1015.2
20260831072014 84 6 0.0 1.0 0.00 0.00 0.00 50 1015.2
20260831071529 84 6 0.0 1.0 0.00 0.00 0.00 49 1015.3
20260831071023 84 6 0.0 2.0 0.00 0.00 0.00 50 1015.1
20260831070518 84 6 0.0 2.0 0.00 0.00 0.00 49 1015.2
20260831070045 85 6 0.0 2.0 0.00 0.00 0.00 48 1015.2
20260831065529 85 6 0.0 2.0 0.00 0.00 0.00 48 1015.2
20260831065024 85 6 1.0 2.0 0.00 0.00 0.00 47 1015.4
20260831064518 86 6 1.0 4.0 0.00 0.00 0.00 46 1015.6
20260831064013 85 7 2.0 4.0 0.00 0.00 0.00 46 1015.4
20260831063527 85 8 1.0 3.0 0.00 0.00 0.00 48 1015.5
20260831063022 85 8 2.0 3.0 0.00 0.00 0.00 48 1015.5
20260831062516 85 9 1.0 2.0 0.00 0.00 0.00 48 1015.5
20260831062014 85 9 2.0 3.0 0.00 0.00 0.00 48 1015.5
20260831061529 85 9 0.0 3.0 0.00 0.00 0.00 48 1015.5
20260831061023 85 9 1.0 2.0 0.00 0.00 0.00 48 1015.5
20260831060517 85 9 1.0 2.0 0.00 0.00 0.00 47 1015.7
20260831060044 85 9 1.0 3.0 0.00 0.00 0.00 47 1015.5
20260831055524 86 9 1.0 5.0 0.00 0.00 0.00 46 1015.4
20260831055019 86 9 2.0 6.0 0.00 0.00 0.00 46 1015.3
20260831054514 86 11 3.0 6.0 0.00 0.00 0.00 45 1015.3
20260831054032 86 4 3.0 6.0 0.00 0.00 0.00 44 1015.4
20260831053526 86 6 2.0 6.0 0.00 0.00 0.00 44 1015.3
20260831053020 87 6 2.0 5.0 0.00 0.00 0.00 43 1015.2
20260831052515 87 33 0.0 4.0 0.00 0.00 0.00 43 1015.0
20260831052029 87 33 2.0 8.0 0.00 0.00 0.00 43 1015.0
20260831051523 88 33 3.0 8.0 0.00 0.00 0.00 42 1014.9
20260831051017 87 6 3.0 7.0 0.00 0.00 0.00 42 1014.9
20260831050516 88 6 4.0 7.0 0.00 0.00 0.00 41 1014.7
20260831050042 88 360 1.0 7.0 0.00 0.00 0.00 41 1014.8
20260831045522 88 2 3.0 6.0 0.00 0.00 0.00 41 1014.8
20260831045016 88 13 4.0 6.0 0.00 0.00 0.00 40 1014.8
20260831044530 89 329 2.0 17.0 0.00 0.00 0.00 43 1014.7
20260831044104 89 277 6.0 17.0 0.00 0.00 0.00 43 1014.6
20260831043514 89 271 8.0 16.0 0.00 0.00 0.00 43 1014.6
20260831043028 89 260 7.0 17.0 0.00 0.00 0.00 43 1014.5
20260831042523 89 260 9.0 17.0 0.00 0.00 0.00 43 1014.6
20260831042021 89 292 6.0 14.0 0.00 0.00 0.00 42 1014.7
20260831041516 89 267 7.0 14.0 0.00 0.00 0.00 42 1014.6
20260831041030 89 276 7.0 15.0 0.00 0.00 0.00 42 1014.6
20260831040524 89 265 9.0 19.0 0.00 0.00 0.00 41 1014.5
20260831040030 89 289 6.0 19.0 0.00 0.00 0.00 40 1014.5
20260831035530 89 271 6.0 14.0 0.00 0.00 0.00 39 1014.5
20260831035025 89 283 5.0 19.0 0.00 0.00 0.00 39 1014.4
20260831034520 90 252 10.0 19.0 0.00 0.00 0.00 40 1014.2
20260831034019 90 254 8.0 14.0 0.00 0.00 0.00 40 1014.3
20260831033513 90 274 8.0 16.0 0.00 0.00 0.00 40 1014.1
20260831033028 90 277 10.0 16.0 0.00 0.00 0.00 40 1014.0
20260831032522 90 279 8.0 17.0 0.00 0.00 0.00 40 1014.0
20260831032017 90 261 9.0 21.0 0.00 0.00 0.00 40 1013.9
20260831031512 90 267 12.0 22.0 0.00 0.00 0.00 39 1013.7
20260831031026 90 263 12.0 22.0 0.00 0.00 0.00 39 1013.5
20260831030525 91 229 11.0 17.0 0.00 0.00 0.00 39 1013.5
20260831030030 91 238 9.0 18.0 0.00 0.00 0.00 38 1013.4
20260831025531 91 271 6.0 19.0 0.00 0.00 0.00 38 1013.4
20260831025026 91 264 8.0 19.0 0.00 0.00 0.00 38 1013.5
20260831024520 92 258 8.0 18.0 0.00 0.00 0.00 37 1013.4
20260831024015 92 288 7.0 12.0 0.00 0.00 0.00 36 1013.4
20260831023529 92 266 7.0 13.0 0.00 0.00 0.00 36 1013.0
20260831023024 93 283 6.0 10.0 0.00 0.00 0.00 35 1013.1
20260831022522 94 277 4.0 10.0 0.00 0.00 0.00 35 1013.0
20260831022017 94 287 4.0 7.0 0.00 0.00 0.00 34 1012.8
20260831021512 94 287 3.0 7.0 0.00 0.00 0.00 34 1012.8
20260831021026 94 289 2.0 8.0 0.00 0.00 0.00 34 1012.6
20260831020518 94 289 2.0 7.0 0.00 0.00 0.00 34 1012.6
20260831020044 94 304 3.0 5.0 0.00 0.00 0.00 33 1012.5
20260831015524 95 308 2.0 4.0 0.00 0.00 0.00 33 1012.4
20260831015023 95 312 2.0 5.0 0.00 0.00 0.00 32 1012.4
20260831014517 95 331 2.0 4.0 0.00 0.00 0.00 32 1012.3
20260831014031 95 331 3.0 5.0 0.00 0.00 0.00 32 1012.4
20260831013526 95 332 2.0 5.0 0.00 0.00 0.00 32 1012.3
20260831013021 95 333 2.0 4.0 0.00 0.00 0.00 32 1012.3
20260831012514 95 337 1.0 3.0 0.00 0.00 0.00 32 1012.3
20260831012028 95 340 1.0 3.0 0.00 0.00 0.00 32 1012.3
20260831011523 95 340 1.0 3.0 0.00 0.00 0.00 31 1012.3
20260831011022 96 340 1.0 3.0 0.00 0.00 0.00 32 1012.1
20260831010517 96 340 1.0 4.0 0.00 0.00 0.00 32 1012.3
20260831010026 96 331 2.0 5.0 0.00 0.00 0.00 31 1012.2
20260831005525 96 356 1.0 3.0 0.00 0.00 0.00 31 1012.1
20260831005020 96 356 1.0 7.0 0.00 0.00 0.00 30 1012.2
20260831004515 96 356 2.0 8.0 0.00 0.00 0.00 30 1012.2
20260831004030 97 346 2.0 8.0 0.00 0.00 0.00 30 1012.1
20260831003529 97 359 2.0 6.0 0.00 0.00 0.00 30 1012.0
20260831003023 97 344 3.0 6.0 0.00 0.00 0.00 30 1012.1
20260831002517 97 309 2.0 6.0 0.00 0.00 0.00 30 1012.2
20260831002031 97 352 2.0 7.0 0.00 0.00 0.00 30 1012.3
20260831001526 97 19 3.0 5.0 0.00 0.00 0.00 30 1012.3
20260831001020 97 344 3.0 5.0 0.00 0.00 0.00 30 1012.3
20260831000516 98 356 2.0 6.0 0.00 0.00 0.00 30 1012.1
20260831000027 97 351 2.0 8.0 0.00 0.00 0.00 30 1012.3
20260830235527 97 360 3.0 8.0 0.00 0.00 0.00 30 1012.3
20260830235023 97 360 3.0 5.0 0.00 0.00 0.00 29 1012.3
20260830233529 97 312 2.0 4.0 0.00 0.00 0.00 29 1012.1
20260830233025 97 309 1.0 5.0 0.00 0.00 0.00 31 1012.3
20260830232521 98 308 2.0 6.0 0.00 0.00 0.00 29 1012.4
20260830232016 98 336 2.0 7.0 0.00 0.00 0.00 29 1012.4
20260830231516 98 307 1.0 4.0 0.00 0.00 0.00 30 1012.5
20260830231032 99 307 2.0 4.0 0.00 0.00 0.00 29 1012.6
20260830230529 99 294 2.0 5.0 0.00 0.00 0.00 29 1012.7
20260830230036 98 294 3.0 7.0 0.00 0.00 0.00 30 1012.8
20260830225518 99 295 2.0 7.0 0.00 0.00 0.00 29 1012.8
20260830225013 99 316 2.0 10.0 0.00 0.00 0.00 29 1012.8
20260830224529 99 301 4.0 7.0 0.00 0.00 0.00 29 1012.9
20260830224025 99 2 2.0 4.0 0.00 0.00 0.00 30 1012.9
20260830223525 99 6 2.0 5.0 0.00 0.00 0.00 29 1013.2
20260830223021 100 6 3.0 9.0 0.00 0.00 0.00 29 1013.1
20260830222516 101 352 3.0 9.0 0.00 0.00 0.00 28 1013.3
20260830222032 100 296 3.0 9.0 0.00 0.00 0.00 29 1013.5
20260830221529 100 231 4.0 9.0 0.00 0.00 0.00 29 1013.6
20260830221026 101 286 4.0 10.0 0.00 0.00 0.00 28 1013.6
20260830220522 101 289 5.0 10.0 0.00 0.00 0.00 28 1013.7
20260830220034 100 325 3.0 9.0 0.00 0.00 0.00 29 1013.7
20260830215515 100 295 3.0 14.0 0.00 0.00 0.00 29 1013.9
20260830215032 100 299 3.0 14.0 0.00 0.00 0.00 29 1013.8
20260830214528 99 19 2.0 7.0 0.00 0.00 0.00 29 1013.9